#timestamp,LO_Frequency,Hit,StdDev 
1607820215.4,286047003.8,P
1607820235.2,286047005.7,P
1607820255.1,286047004.1,N
1607820256.0,286047004.1,Y
1607820275.8,286047000.2,P
1607820325.7,286047007.6,E
1607820335.6,286047004.3,N
1607820355.4,286046998.1,P
1607820375.3,286046999.0,N
1607820395.1,286046995.1,N
1607820415.8,286046997.6,N
1607820435.7,286046996.1,N
1607820455.5,286046996.2,N
1607820475.4,286046996.2,N
1607820495.2,286046993.5,N
1607820515.0,286046993.0,N
1607820515.9,286046993.0,N
1607820535.8,286046991.9,N
1607820555.6,286046990.2,Y
1607820575.4,286046995.9,P
1607820595.3,286046993.6,P
1607820615.1,286046992.0,P
1607820635.9,286046990.5,Y
1607820655.7,286046996.9,P
1607820675.5,286046995.3,P
1607820695.4,286046996.7,P
1607820715.2,286046996.6,Y
1607820735.0,286047000.1,P
1607820736.0,286047000.1,N
1607820755.8,286047000.1,N
1607820775.6,286046998.8,N
1607820795.5,286047000.0,N
1607820815.3,286047001.5,N
1607820835.1,286047003.7,N
1607820855.9,286047002.7,N
1607820875.7,286047003.5,N
1607820895.5,286047005.8,N
1607820915.4,286047003.2,N
1607820935.2,286047003.6,N
1607820955.1,286047004.6,N
1607820956.0,286047004.6,N
1607820975.8,286047006.4,N
1607820995.6,286047006.9,N
1607821015.5,286047008.4,N
1607821035.3,286047013.2,Y
1607821055.2,286047007.8,P
1607821075.9,286047007.3,N
1607821095.7,286047005.7,N
1607821115.6,286047005.3,N
1607821135.4,286047010.2,Y
1607821155.2,286047002.3,P
1607821175.1,286047001.2,N
1607821176.0,286047001.2,N
1607821195.8,286046999.1,N
